Tracy, MN

12:14 AM CDT on August 25, 2016 (GMT -0500)
Tracy

Weather History for KTKC - January, 2014

Change the Weather History Date:

Friday, January 10, 2014

  Actual Average (KMML) Record (KMML)
Temperature  
Mean Temperature 29 °F -  
Max Temperature 32 °F 17 °F 57 °F (2012)
Min Temperature 26 °F 0 °F -27 °F (1977)
Degree Days  
Heating Degree Days 36    
Moisture  
Dew Point 27 °F    
Average Humidity 90    
Maximum Humidity 95    
Minimum Humidity 77    
Precipitation  
Precipitation 0.00 in - - ()
Sea Level Pressure  
Sea Level Pressure 29.57 in    
Wind  
Wind Speed 17 mph (SW)    
Max Wind Speed 30 mph    
Max Gust Speed 37 mph    
Visibility 4 miles    
Events Snow    
Averages and records for this station are not official NWS values.
T = Trace of Precipitation, MM = Missing Value Source: NWS Daily Summary

Daily Weather History Graph

Daily Weather History Graph

Search for Another Location

Airport or City:

Trip Planner

Search our weather history database for the weather conditions in past years. The results will help you decide how hot, cold, wet, or windy it might be!

Date:

Astronomy

Jan. 10, 2014 Rise Set
Actual Time 7:56 AM CST 5:03 PM CST
Civil Twilight 7:24 AM CST 5:36 PM CST
Nautical Twilight 6:48 AM CST 6:12 PM CST
Astronomical Twilight 6:13 AM CST 6:47 PM CST
Moon 1:11 PM CST (1/10) 3:01 AM CST (1/10)
Length of Visible Light 10h 11m
Length of Day
9h 06m
Waxing Gibbous, 75% of the Moon is Illuminated
Jan 10
Waxing Gibbous
Jan 15
Full
Jan 23
Last Quarter
Jan 30
New
Feb 6
First Quarter

Hourly Weather History & Observations

Time (CST) Temp. Windchill Dew Point Humidity Pressure Visibility Wind Dir Wind Speed Gust Speed Precip Events Conditions
2:03 AM 27.3 °F 11.5 °F 24.4 °F 89% 29.72 in 2.0 mi SSW 28.8 mph 35.7 mph N/A Snow Light Snow
2:17 AM 27.5 °F 12.6 °F 24.8 °F 90% 29.71 in 2.5 mi SSW 25.3 mph 34.5 mph N/A Snow Light Snow
2:38 AM 27.9 °F 12.5 °F 25.2 °F 90% 29.72 in 2.5 mi SSW 27.6 mph 33.4 mph N/A Snow Light Snow
2:58 AM 28.2 °F 13.9 °F 25.3 °F 89% 29.71 in 2.5 mi SSW 24.2 mph 36.8 mph N/A Snow Light Snow
3:18 AM 28.4 °F 13.0 °F 25.7 °F 90% 29.69 in 3.0 mi SSW 28.8 mph 35.7 mph N/A Snow Light Snow
3:38 AM 28.8 °F 13.2 °F 26.1 °F 90% 29.68 in 4.0 mi SSW 29.9 mph 36.8 mph N/A   Overcast
3:58 AM 29.3 °F 14.5 °F 26.4 °F 89% 29.68 in 5.0 mi SSW 27.6 mph 34.5 mph N/A   Overcast
4:18 AM 29.8 °F 15.2 °F 26.6 °F 88% 29.66 in 5.0 mi SSW 27.6 mph 34.5 mph N/A   Overcast
4:37 AM 29.7 °F 15.8 °F 26.6 °F 88% 29.65 in 5.0 mi SSW 24.2 mph 32.2 mph N/A   Overcast
4:57 AM 29.3 °F 14.7 °F 26.6 °F 90% 29.63 in 4.0 mi SSW 26.5 mph 33.4 mph N/A   Overcast
5:17 AM 29.8 °F 15.5 °F 27.1 °F 90% 29.63 in 5.0 mi SSW 26.5 mph 33.4 mph N/A   Overcast
5:38 AM 30.0 °F 15.7 °F 27.3 °F 90% 29.63 in 4.0 mi SSW 26.5 mph 33.4 mph N/A   Overcast
5:58 AM 30.0 °F 16.6 °F 27.3 °F 90% 29.62 in 4.0 mi SSW 23.0 mph 32.2 mph N/A   Overcast
6:18 AM 30.0 °F 16.9 °F 27.3 °F 90% 29.62 in 4.0 mi SSW 21.9 mph 31.1 mph N/A   Overcast
6:38 AM 30.2 °F 16.8 °F 27.5 °F 90% 29.61 in 5.0 mi SSW 23.0 mph 31.1 mph N/A   Overcast
6:58 AM 30.2 °F 17.1 °F 27.5 °F 90% 29.61 in 5.0 mi SSW 21.9 mph 33.4 mph N/A   Overcast
7:17 AM 30.2 °F 18.9 °F 27.5 °F 90% 29.61 in 5.0 mi SSW 16.1 mph 24.2 mph N/A   Overcast
7:38 AM 29.7 °F 19.6 °F 27.3 °F 91% 29.60 in 4.0 mi South 12.7 mph 21.9 mph N/A   Overcast
7:58 AM 29.3 °F 19.6 °F 27.1 °F 92% 29.62 in 3.0 mi South 11.5 mph 17.3 mph N/A   Overcast
8:17 AM 29.3 °F 22.3 °F 27.1 °F 92% 29.62 in 2.5 mi South 6.9 mph - N/A   Overcast
8:38 AM 29.3 °F 20.8 °F 27.3 °F 92% 29.62 in 2.5 mi South 9.2 mph - N/A   Overcast
8:58 AM 29.3 °F 21.5 °F 27.3 °F 92% 29.62 in 2.0 mi South 8.1 mph - N/A   Overcast
9:18 AM 29.3 °F 19.1 °F 27.3 °F 92% 29.62 in 2.0 mi South 12.7 mph - N/A   Overcast
9:37 AM 29.7 °F 20.7 °F 27.5 °F 92% 29.63 in 2.0 mi South 10.4 mph - N/A   Overcast
9:58 AM 29.8 °F 23.0 °F 27.9 °F 92% 29.63 in 2.0 mi South 6.9 mph - N/A   Overcast
10:18 AM 29.7 °F 22.0 °F 27.9 °F 93% 29.63 in 1.8 mi South 8.1 mph - N/A   Overcast
10:37 AM 29.7 °F 20.1 °F 27.9 °F 93% 29.63 in 1.8 mi South 11.5 mph - N/A   Overcast
10:57 AM 29.8 °F 20.9 °F 28.2 °F 94% 29.63 in 1.5 mi SSW 10.4 mph - N/A   Overcast
11:17 AM 30.2 °F 22.6 °F 28.8 °F 94% 29.62 in 1.2 mi South 8.1 mph - N/A   Overcast
11:38 AM 30.4 °F 22.9 °F 29.1 °F 95% 29.61 in 1.5 mi South 8.1 mph - N/A   Overcast
11:58 AM 30.7 °F 23.3 °F 29.3 °F 94% 29.58 in 1.2 mi South 8.1 mph 19.6 mph N/A   Overcast
12:18 PM 31.1 °F 23.1 °F 29.7 °F 94% 29.57 in 1.2 mi South 9.2 mph - N/A   Overcast
12:37 PM 31.5 °F 21.8 °F 29.8 °F 94% 29.55 in 1.5 mi SSW 12.7 mph - N/A   Overcast
12:58 PM 31.8 °F 23.9 °F 30.0 °F 93% 29.53 in 2.0 mi SSW 9.2 mph - N/A   Overcast
1:18 PM 32.0 °F 25.6 °F 30.2 °F 93% 29.53 in 2.0 mi SSW 6.9 mph - N/A   Overcast
1:38 PM 32.0 °F 24.2 °F 30.2 °F 93% 29.53 in 2.0 mi SW 9.2 mph - N/A   Overcast
1:57 PM 32.2 °F 23.2 °F 30.6 °F 94% 29.52 in 3.0 mi SW 11.5 mph - N/A   Overcast
2:18 PM 32.2 °F 25.0 °F 30.7 °F 94% 29.52 in 2.5 mi SW 8.1 mph - N/A   Overcast
2:38 PM 32.4 °F 24.6 °F 30.7 °F 94% 29.52 in 3.0 mi SW 9.2 mph - N/A   Overcast
2:57 PM 32.7 °F 25.0 °F 30.9 °F 93% 29.52 in 3.0 mi WSW 9.2 mph - N/A   Overcast
3:17 PM 32.9 °F 26.7 °F 30.7 °F 92% 29.52 in 3.0 mi SW 6.9 mph - N/A   Overcast
3:38 PM 32.9 °F 28.5 °F 30.9 °F 92% 29.53 in 3.0 mi SW 4.6 mph - N/A   Overcast
3:58 PM 32.9 °F - 30.9 °F 92% 29.52 in 4.0 mi Calm Calm - N/A   Overcast
4:18 PM 32.9 °F - 30.7 °F 92% 29.53 in 4.0 mi Calm Calm - N/A   Overcast
4:37 PM 32.9 °F 26.7 °F 30.6 °F 91% 29.53 in 4.0 mi SW 6.9 mph - N/A   Overcast
4:58 PM 32.9 °F - 30.9 °F 92% 29.53 in 3.0 mi Calm Calm - N/A   Overcast
5:17 PM 32.5 °F - 31.1 °F 94% 29.52 in 2.5 mi Calm Calm - N/A   Overcast
5:38 PM 32.5 °F 26.2 °F 31.1 °F 94% 29.52 in 3.0 mi WSW 6.9 mph - N/A   Overcast
5:58 PM 32.2 °F 27.7 °F 30.6 °F 94% 29.52 in 4.0 mi WSW 4.6 mph - N/A   Overcast
6:18 PM 32.0 °F 26.4 °F 30.0 °F 92% 29.51 in 4.0 mi WSW 5.8 mph - N/A   Mostly Cloudy
6:37 PM 31.6 °F 27.0 °F 29.3 °F 91% 29.51 in 4.0 mi WSW 4.6 mph - N/A   Mostly Cloudy
6:57 PM 31.1 °F 24.5 °F 29.3 °F 93% 29.51 in 4.0 mi WSW 6.9 mph - N/A   Mostly Cloudy
7:18 PM 30.7 °F 24.9 °F 28.4 °F 91% 29.51 in 5.0 mi West 5.8 mph - N/A   Scattered Clouds
7:38 PM 30.2 °F 23.4 °F 27.7 °F 90% 29.51 in 5.0 mi WSW 6.9 mph - N/A   Clear
7:58 PM 29.3 °F 22.3 °F 27.0 °F 91% 29.51 in 5.0 mi WSW 6.9 mph - N/A   Clear
8:17 PM 28.6 °F - 26.2 °F 91% 29.50 in 5.0 mi Calm Calm - N/A   Clear
8:37 PM 28.4 °F 20.4 °F 25.7 °F 90% 29.50 in 5.0 mi WSW 8.1 mph - N/A   Clear
8:58 PM 28.4 °F 21.2 °F 25.5 °F 89% 29.50 in 7.0 mi West 6.9 mph - N/A   Clear
9:18 PM 27.5 °F 21.1 °F 24.4 °F 88% 29.50 in 7.0 mi West 5.8 mph - N/A   Clear
9:37 PM 26.6 °F 19.1 °F 23.7 °F 89% 29.50 in 7.0 mi West 6.9 mph - N/A   Clear
9:58 PM 26.6 °F 21.2 °F 23.0 °F 86% 29.50 in 10.0 mi West 4.6 mph - N/A   Clear
10:18 PM 27.3 °F 19.1 °F 22.5 °F 82% 29.50 in 10.0 mi West 8.1 mph - N/A   Clear
10:37 PM 26.8 °F 18.5 °F 21.9 °F 82% 29.50 in 10.0 mi West 8.1 mph - N/A   Clear
10:58 PM 27.1 °F 20.7 °F 21.4 °F 79% 29.50 in 10.0 mi West 5.8 mph - N/A   Clear
11:18 PM 27.3 °F 19.1 °F 21.2 °F 78% 29.50 in 10.0 mi WSW 8.1 mph - N/A   Clear
11:38 PM 27.5 °F 19.3 °F 21.2 °F 77% 29.50 in 10.0 mi West 8.1 mph - N/A   Clear
11:58 PM 27.5 °F 18.6 °F 21.0 °F 77% 29.50 in 10.0 mi West 9.2 mph - N/A   Clear